Location: *
(43.0861°S, 86.3931°E)
Time: 18:09:07
(UTC+00:00)

Daily predictions for brighter satellites

Satellite Brightness Start Highest point End
(mag) Time Altitude Azimuth Time Altitude Azimuth Time Altitude Azimuth
CZ-2D R/B 3.2 12:06:25 10° SSE 12:10:10 89° WSW 12:13:49 10° NNW
Cosmos 1862 Rocket 3.7 12:07:03 10° N 12:11:26 84° W 12:15:56 10° S
USA 215 3.8 12:07:11 10° E 12:13:17 43° SSE 12:19:26 10° SW
CORIOLIS 4.5 12:08:56 10° SSE 12:14:08 44° E 12:19:14 10° N
Spot 4 Rocket 4.1 12:10:52 10° SSE 12:16:07 89° NE 12:21:16 10° NNW
Cosmos 1733 Rocket 3.6 12:13:54 10° SSW 12:18:20 67° W 12:22:45 10° N
SL-08 R/B 4.1 12:13:57 10° N 12:18:50 62° W 12:23:49 10° SSW
NOSS 3-1 (A) 4.1 12:14:12 10° SW 12:20:17 54° WNW 12:25:17 10° NNE
Cosmos 1709 Rocket 4.2 12:14:08 10° NNE 12:20:20 54° E 12:26:35 10° SSE
Cosmos 1441 Rocket 3.4 12:17:59 10° SSW 12:21:40 73° W 12:25:18 10° N
Cosmos 1302 Rocket 4.5 12:16:27 10° SSW 12:21:46 69° WNW 12:27:02 10° N
USA 229 DEB 3.5 12:19:50 10° SSW 12:26:29 65° SE 12:32:31 10° NE
USA 229 3.5 12:19:57 10° SSW 12:26:34 64° SE 12:32:37 10° NE
Okean 1-7 3.0 12:23:20 10° N 12:27:40 68° E 12:32:04 10° SSE
Helios 1B rocket 2.8 12:25:45 10° SSE 12:29:30 38° E 12:33:11 10° NNE
Meteor 1-31 Rocket 3.2 12:30:15 10° SSE 12:33:46 38° E 12:37:15 10° NNE
Cosmos 614 Rocket 4.4 12:31:43 10° NNW 12:36:55 67° WSW 12:42:08 10° SSE
Cosmos 1315 Rocket 4.0 12:34:00 10° NE 12:37:02 21° E 12:40:07 10° SE
Meteor 1-16 Rocket 4.4 12:31:28 10° S 12:37:31 86° E 12:43:28 10° N
SeaSat 1 2.7 12:33:56 10° SE 12:38:45 48° ENE 12:43:30 10° N
SAR-Lupe-2 4.4 12:37:37 10° SE 12:40:54 30° E 12:44:07 10° NNE
DELTA 2 DEB (DPAF) 4.1 12:38:43 10° NNE 12:42:53 55° ESE 12:47:08 10° S
Cosmos 1697 Rocket 4.2 12:39:51 10° S 12:43:36 18° SE 12:45:39 15° ESE
Cosmos 1400 Rocket 3.5 12:40:21 10° NNW 12:44:17 57° WSW 12:48:15 10° S
CZ-2C R/B 2.5 12:41:02 10° SSE 12:44:38 68° ENE 12:48:13 10° N
Okean 2 3.3 12:41:53 10° N 12:45:54 90° NW 12:50:00 10° S
Cosmos 44 3.4 12:41:25 10° SSW 12:46:04 56° SE 12:50:59 10° NE
Cosmos 1782 Rocket 3.7 12:52:00 10° S 12:56:19 50° ESE 13:00:34 10° NNE
Cosmos 482 Debris 3.6 12:55:11 10° NNW 12:56:31 30° N 12:56:31 30° N
SMAP 3.6 12:53:48 10° S 12:58:30 64° WSW 13:03:08 10° NNW
BREEZE-M DEB (TANK) 3.7 12:57:30 10° SW 12:59:28 23° S 13:00:29 19° SE
Cosmos 1346 Rocket 2.7 12:55:41 10° S 12:59:42 90° NE 13:03:36 10° N
Cosmos 2074 Rocket 4.4 12:54:35 10° NNE 13:00:13 38° E 13:05:56 10° SSE
ISS -2.0 12:58:10 10° N 13:00:17 18° NE 13:00:17 18° NE
CZ-4C R/B 3.9 13:02:04 29° E 13:02:31 30° ESE 13:05:48 10° S
Cosmos 1269 Rocket 4.4 12:57:49 10° NNW 13:03:06 70° WSW 13:08:28 10° SSE
Cosmos 1908 Rocket 3.9 12:58:46 10° SSW 13:03:12 69° W 13:07:32 10° N
AQUARIUS 4.4 13:00:04 10° S 13:04:37 72° WSW 13:09:05 10° NNW
Cosmos 2285 Rocket 4.0 12:58:38 10° NNW 13:05:03 77° ENE 13:11:34 10° SSE
CZ-4B R/B 3.8 13:17:08 10° SSE 13:22:14 43° E 13:27:12 10° N
Delta 2 Rocket 4.5 13:19:13 10° NW 13:22:29 27° N 13:23:05 26° NNE
Cosmos 1300 Rocket 3.4 13:19:19 10° S 13:23:43 80° E 13:28:03 10° N
IGS 5A 3.4 13:19:37 10° SSE 13:23:46 62° E 13:27:51 10° N
Cosmos 1140 Rocket 3.3 13:23:32 10° NNW 13:28:43 80° ENE 13:33:56 10° SSE
Cosmos 2098 Rocket 4.0 13:22:39 10° S 13:29:17 70° E 13:35:57 10° NNE
ATLAS CENTAUR R/B 4.4 13:26:25 10° SSW 13:30:19 22° SSE 13:32:50 18° SE
Cosmos 2242 Rocket 3.5 13:26:09 10° N 13:30:42 85° E 13:35:21 10° S
Cosmos 1656 3.6 13:25:26 10° SSW 13:31:13 81° ESE 13:35:00 22° NNE
Cosmos 1174 4.5 13:29:28 10° NNW 13:31:12 29° NNW 13:31:12 29° NNW
Cosmos 1953 4.2 13:31:11 10° SSW 13:34:43 31° W 13:38:11 10° NNW
Cosmos 1455 3.4 13:31:55 10° SSW 13:35:19 40° W 13:38:41 10° NNW
Lacrosse 5 2.6 13:30:42 10° SW 13:35:28 37° SSE 13:36:06 35° SE
Cosmos 407 Rocket 3.3 13:34:16 10° N 13:39:22 67° ENE 13:43:26 16° SSE
Cosmos 1833 Rocket 2.5 13:47:51 10° NNW 13:53:28 75° ENE 13:55:55 35° SE
USA 215 3.3 13:53:02 36° NE 13:56:00 75° NW 14:02:39 10° SW
Cosmos 1763 Rocket 4.1 13:52:14 10° S 13:56:05 40° SSE 13:56:05 40° SSE
ADEOS Rocket 3.1 13:58:50 10° SSE 14:06:05 87° ENE 14:12:30 10° NNW
Lacrosse 4 Rocket 4.1 14:04:23 10° S 14:04:43 11° S 14:04:43 11° S
Cosmos 2360 4.1 14:01:58 10° SSW 14:07:47 89° WNW 14:08:25 73° NNE
SeaSat 1 4.4 14:11:49 10° S 14:15:56 27° SW 14:20:03 10° WNW
Meteor 2-5 Rocket 3.9 14:10:41 10° NNW 14:16:38 76° W 14:22:34 10° S
Cosmos 1980 Rocket 3.4 14:11:35 10° SSW 14:14:54 30° SSE 14:14:54 30° SSE
Cosmos 2251 Rocket 4.0 14:12:47 10° NNW 14:18:05 60° WSW 14:23:29 10° SSE
Cosmos 2154 Rocket 4.2 14:13:55 10° NNW 14:20:09 69° W 14:26:31 10° S
Cosmos 1697 Rocket 2.9 14:22:37 10° SSW 14:27:24 64° SSW 14:27:24 64° SSW
NOSS 3-3 (A) 4.5 14:22:31 10° NNW 14:31:19 76° ENE 14:32:06 71° ESE
Meteor 1-24 Rocket 4.5 14:31:43 10° NNW 14:37:27 52° WSW 14:43:02 10° S
NOSS 3-3 (C) 4.5 14:29:04 10° NNW 14:37:57 79° ENE 14:38:15 78° E
Lacrosse 5 4.2 15:13:39 10° SW 15:15:18 20° WSW 15:15:18 20° WSW
CZ-4C R/B 4.4 20:26:25 31° ESE 20:26:25 31° ESE 20:30:04 10° SE
CENTAUR R/B 3.9 20:53:00 40° E 20:53:00 40° E 20:58:08 10° SE
SL-16 R/B 4.2 20:53:33 10° SE 20:58:27 28° E 20:58:27 28° E
ARIANE 5 R/B 3.8 21:37:42 10° NE 21:42:25 37° ESE 21:47:08 10° S
CZ-2C R/B 4.3 21:37:23 10° S 21:39:54 28° S 21:39:54 28° S
ATLAS CENTAUR R/B 4.0 21:51:48 16° SSE 21:51:48 16° SSE 21:52:47 10° SSE
Lacrosse 5 rocket 4.2 21:52:49 12° NE 21:52:49 12° NE 21:53:07 10° NE
Timation 2 Rocket 4.3 21:50:59 56° ENE 21:51:06 56° ENE 21:56:59 10° SE
Cosmos 1655 Rocket 4.2 21:45:35 10° S 21:51:59 69° E 21:58:16 10° NNE
NOSS 3-2 (A) 4.2 21:58:48 56° NNW 22:01:00 82° ENE 22:08:58 10° SE
Cosmos 1844 Rocket 3.3 22:05:45 46° S 22:05:45 46° S 22:09:49 10° SSE
CZ-4C R/B 3.3 22:11:32 46° SW 22:11:36 46° SW 22:18:22 10° SSE
SeaSat 1 3.5 22:08:02 10° NE 22:12:42 43° SE 22:17:24 10° SSW
IRS-1C 4.0 22:20:09 10° NNE 22:25:31 84° WNW 22:30:58 10° SSW
SL-08 RB Rocket 4.3 22:22:58 10° NNE 22:27:25 57° ESE 22:31:54 10° S
Meteor 1-11 Rocket 3.6 22:31:48 65° W 22:31:53 65° WSW 22:37:39 10° S
Cosmos 489 Rocket 4.3 22:30:42 55° NW 22:32:06 75° WSW 22:38:24 10° SSE
SL-19 R/B 4.1 22:30:42 10° NNE 22:35:59 88° ESE 22:41:33 10° SSW
Cosmos 1975 3.7 22:35:17 15° NNE 22:38:21 48° E 22:42:15 10° SSE
GEOS 3 Rocket 4.4 22:34:06 10° SE 22:39:12 49° ENE 22:43:13 16° NNW
BREEZE-M R/B 4.3 22:40:58 31° SE 22:40:58 31° SE 22:43:17 10° E
CENTAUR R/B 3.1 22:40:11 42° W 22:42:03 49° SW 22:48:38 10° SSE
SL-16 R/B 2.7 22:36:37 10° S 22:42:37 50° WSW 22:43:32 46° W
Cosmos 1833 Rocket 3.9 22:40:20 10° SSW 22:45:46 42° ESE 22:51:07 10° NE
Meteor 2-9 Rocket 4.2 22:43:55 35° NNW 22:46:22 67° WSW 22:52:18 10° S
Cosmos 1340 4.3 22:43:36 10° NNE 22:46:45 32° E 22:49:56 10° SSE
Cosmos 1666 Rocket 3.9 22:42:57 10° N 22:47:17 65° E 22:51:40 10° SSE
CZ-2D R/B 4.5 22:44:11 10° NE 22:47:41 41° ESE 22:51:14 10° S
Cosmos 2228 Rocket 3.2 22:44:42 10° S 22:49:23 82° E 22:53:57 10° N
IRS-P3 4.0 22:44:15 10° N 22:49:34 65° WNW 22:54:59 10° SSW
Cosmos 1707 Rocket 3.8 22:45:41 10° S 22:50:11 70° E 22:54:34 10° NNE
SL-14 R/B 3.6 22:50:43 10° S 22:54:37 65° E 22:58:29 10° NNE
FengYun 1-2 T 4.3 22:54:09 10° N 22:59:30 52° W 23:04:56 10° SSW
SL-8 R/B 3.6 23:00:17 46° W 23:01:38 70° NNW 23:06:26 10° NE
Cosmos 2278 Rocket 3.8 23:00:41 10° NNE 23:05:45 35° ENE 23:10:53 10° SE
SL-08 R/B 4.4 23:00:26 10° S 23:06:43 88° W 23:13:00 10° N
Cosmos 1553 Rocket 3.8 23:01:18 10° N 23:07:25 82° W 23:13:36 10° S
Nadezhda 2 Rocket 4.4 23:05:23 10° SSW 23:11:43 68° W 23:17:52 10° N
NOSS 3-2 (C) 4.1 23:05:15 14° NW 23:13:21 77° SW 23:21:14 10° SE
Helios 1B rocket 4.5 23:10:52 10° NE 23:14:15 28° ESE 23:17:41 10° S
SJ-11-01 4.2 23:10:56 10° N 23:15:40 68° WNW 23:20:28 10° SSW
Okean 3 3.5 23:12:47 10° S 23:17:05 80° E 23:21:21 10° N
BREEZE-M DEB (TANK) 2.9 23:17:27 28° NW 23:19:09 75° NNE 23:21:38 10° ESE
ARIANE 5 R/B 3.3 23:17:07 10° NNW 23:21:31 28° W 23:25:56 10° SW
CZ-2C R/B 4.4 23:19:06 10° NE 23:22:23 33° ESE 23:25:40 10° S
[s.n.70599] 2.1 23:22:12 71° WNW 23:22:24 80° N 23:24:58 10° E
ARGOS 3.8 23:18:12 10° NNW 23:23:00 33° W 23:27:53 10° SSW
Cosmos 1633 Rocket 3.1 23:21:21 10° NNW 23:25:43 59° W 23:30:11 10° S
Cosmos 1356 Rocket 3.8 23:21:32 10° S 23:25:48 68° ESE 23:29:56 10° NNE
Lacrosse 5 rocket 3.4 23:27:50 14° NW 23:27:50 14° NW 23:29:14 10° NNW
ATLAS CENTAUR R/B 3.7 23:26:57 10° SW 23:27:19 10° SSW 23:28:13 10° SSW
Cosmos 1805 3.9 23:30:33 25° WNW 23:31:41 30° WSW 23:35:05 10° SSW
Spot 4 Rocket 4.1 23:27:40 10° N 23:32:44 57° W 23:37:52 10° SSW
Meteor 1-21 4.3 23:27:18 10° SSW 23:33:01 56° W 23:38:37 10° N
DELTA 2 R/B (1) 3.8 23:34:01 19° WNW 23:37:58 62° N 23:43:29 10° E
CORIOLIS 4.3 23:32:41 10° NNE 23:38:09 81° ESE 23:43:39 10° SSW
Cosmos 1470 4.0 23:36:47 10° NNE 23:40:23 43° E 23:44:02 10° SSE
DMSP B5D2-2 4.2 23:35:45 10° S 23:40:58 55° WSW 23:46:05 10° NNW
SL-24 DEB 4.3 23:37:18 10° N 23:41:57 85° E 23:46:38 10° S
SJ-7 4.2 23:39:27 10° N 23:43:22 71° WNW 23:47:21 10° SSW
Cosmos 1703 Rocket 3.9 23:41:16 10° S 23:45:47 72° E 23:50:11 10° NNE
PSLV R/B 3.9 23:43:55 10° NNW 23:47:48 38° W 23:51:45 10° SSW
Cosmos 1844 Rocket 4.5 23:47:26 12° WSW 23:49:09 13° SW 23:51:48 10° SSW
SeaSat 1 3.4 23:46:04 10° NNW 23:50:14 27° WNW 23:54:28 10° SW
Cosmos 1140 Rocket 3.6 23:48:44 10° SSW 23:53:45 52° WNW 23:58:44 10° N
NOSS 3-3 (A) 4.3 23:48:37 10° SW 23:54:15 37° WNW 23:59:12 10° N
